Entrance, British Columbia

10:42 PM PDT on April 24, 2017 (GMT -0700)
Entrance

Weather History for CWEL - April, 2013

Change the Weather History Date:

Saturday, April 20, 2013

  Actual Average Record
Temperature  
Mean Temperature 49 °F -  
Max Temperature 51 °F - - ()
Min Temperature 47 °F - - ()
Degree Days  
Heating Degree Days 16    
Moisture  
Dew Point 43 °F    
Average Humidity 77    
Maximum Humidity 87    
Minimum Humidity 68    
Precipitation  
Precipitation 0.00 in - - ()
Sea Level Pressure  
Sea Level Pressure 30.19 in    
Wind  
Wind Speed 12 mph ()    
Max Wind Speed 21 mph    
Max Gust Speed 22 mph    
T = Trace of Precipitation, MM = Missing Value Source: Averaged Metar Reports

Daily Weather History Graph

Daily Weather History Graph

Search for Another Location

Airport or City:

Trip Planner

Search our weather history database for the weather conditions in past years. The results will help you decide how hot, cold, wet, or windy it might be!

Date:

Astronomy

Apr. 20, 2013 Rise Set
Actual Time 6:13 AM PDT 8:15 PM PDT
Civil Twilight 5:38 AM PDT 8:50 PM PDT
Nautical Twilight 4:56 AM PDT 9:32 PM PDT
Astronomical Twilight 4:09 AM PDT 10:20 PM PDT
Moon 2:39 PM PDT (4/20) 3:34 AM PDT (4/20)
Length of Visible Light 15h 11m
Length of Day
14h 02m
Waxing Gibbous, 72% of the Moon is Illuminated
Apr 20
Waxing Gibbous
Apr 25
Full
May 2
Last Quarter
May 9
New
May 17
First Quarter

Hourly Weather History & Observations

Time (PDT) Temp. Dew Point Humidity Pressure Visibility Wind Dir Wind Speed Gust Speed Precip Events Conditions
12:00 AM 50.7 °F 46.6 °F 86% 30.12 in - West 16.1 mph - N/A   Unknown
1:00 AM 51.1 °F 44.6 °F 78% 30.13 in - West 15.0 mph - N/A   Unknown
2:00 AM 50.2 °F 45.9 °F 85% 30.13 in - NW 16.1 mph - N/A   Unknown
3:00 AM 49.1 °F 45.5 °F 87% 30.15 in - NW 16.1 mph 21.9 mph N/A   Unknown
4:00 AM 49.3 °F 45.1 °F 86% 30.16 in - WNW 13.8 mph - N/A   Unknown
5:00 AM 49 °F 43 °F 73% 30.17 in - WNW 19.6 mph - -  
5:00 AM 49.1 °F 43.0 °F 79% 30.17 in - WNW 19.6 mph - N/A   Unknown
6:00 AM 48.7 °F 43.3 °F 82% 30.18 in - WNW 19.6 mph - N/A   Unknown
7:00 AM 48.4 °F 42.6 °F 80% 30.18 in - WNW 20.7 mph - N/A   Unknown
8:00 AM 48.2 °F 42.4 °F 80% 30.19 in - WNW 18.4 mph - N/A   Unknown
9:00 AM 48.4 °F 41.9 °F 78% 30.20 in - WNW 16.1 mph - N/A   Unknown
10:00 AM 48.4 °F 41.7 °F 78% 30.20 in - NW 13.8 mph - N/A   Unknown
11:00 AM 49 °F 42 °F 68% 30.22 in - NW 13.8 mph - -  
11:00 AM 48.7 °F 41.7 °F 77% 30.22 in - NW 13.8 mph - N/A   Unknown
12:00 PM 49.3 °F 41.5 °F 75% 30.22 in - NNW 11.5 mph - N/A   Unknown
1:00 PM 49.6 °F 42.1 °F 75% 30.21 in - NW 6.9 mph - N/A   Unknown
2:00 PM 50.2 °F 42.3 °F 74% 30.20 in - NW 8.1 mph - N/A   Unknown
3:00 PM 50.4 °F 42.1 °F 73% 30.21 in - NW 6.9 mph - N/A   Unknown
4:00 PM 50.5 °F 42.8 °F 75% 30.21 in - NW 5.8 mph - N/A   Unknown
5:00 PM 51 °F 44 °F 69% 30.20 in - WNW 9.2 mph - -  
5:00 PM 50.5 °F 43.9 °F 78% 30.20 in - WNW 9.2 mph - N/A   Unknown
6:00 PM 50.7 °F 41.9 °F 72% 30.19 in - WNW 9.2 mph - N/A   Unknown
7:00 PM 50.4 °F 43.0 °F 76% 30.19 in - NW 12.7 mph - N/A   Unknown
8:00 PM 50.4 °F 43.0 °F 76% 30.19 in - WNW 8.1 mph - N/A   Unknown
9:00 PM 50.4 °F 43.0 °F 76% 30.19 in - West 8.1 mph - N/A   Unknown
10:00 PM 49.8 °F 42.3 °F 75% 30.20 in - WSW 8.1 mph - N/A   Unknown
11:00 PM 49 °F 42 °F 70% 30.20 in - West 6.9 mph - -  
11:00 PM 49.3 °F 42.3 °F 77% 30.20 in - West 6.9 mph - N/A   Unknown